| time (UTC) | temp F | wind direction | speed knots | gust knots | rain 1hr in | rain 24hr in | rain mn in | humidity % | barometer mb |
| 20260505224006 | 50 | 271 | 2.6 | 7.8 | 0.00 | 0.00 | 0.00 | 42 | 1009.0 |
| 20260505223506 | 50 | 262 | 2.6 | 6.1 | 0.00 | 0.00 | 0.00 | 42 | 1009.0 |
| 20260505223006 | 50 | 289 | 1.7 | 6.1 | 0.00 | 0.00 | 0.00 | 43 | 1008.8 |
| 20260505222506 | 50 | 279 | 2.6 | 7.0 | 0.00 | 0.00 | 0.00 | 42 | 1008.9 |
| 20260505222006 | 50 | 237 | 1.7 | 6.1 | 0.00 | 0.00 | 0.00 | 42 | 1008.8 |
| 20260505221506 | 50 | 283 | 2.6 | 7.8 | 0.00 | 0.00 | 0.00 | 43 | 1008.9 |
| 20260505221006 | 50 | 294 | 1.7 | 7.0 | 0.00 | 0.00 | 0.00 | 44 | 1008.8 |
| 20260505220506 | 50 | 283 | 3.5 | 7.8 | 0.00 | 0.00 | 0.00 | 41 | 1008.8 |
| 20260505215006 | 50 | 301 | 1.7 | 8.7 | 0.00 | 0.00 | 0.00 | 42 | 1008.8 |
| 20260505214506 | 50 | 303 | 2.6 | 8.7 | 0.00 | 0.00 | 0.00 | 41 | 1008.8 |
| 20260505214006 | 51 | 296 | 2.6 | 8.7 | 0.00 | 0.00 | 0.00 | 41 | 1008.9 |
| 20260505213506 | 51 | 245 | 1.7 | 5.2 | 0.00 | 0.00 | 0.00 | 40 | 1008.9 |
| 20260505213006 | 52 | 259 | 2.6 | 10.4 | 0.00 | 0.00 | 0.00 | 39 | 1008.9 |
| 20260505212506 | 52 | 205 | 2.6 | 10.4 | 0.00 | 0.00 | 0.00 | 38 | 1008.9 |
| 20260505211506 | 52 | 218 | 2.6 | 7.0 | 0.00 | 0.00 | 0.00 | 40 | 1008.9 |
| 20260505210506 | 51 | 299 | 4.3 | 10.4 | 0.00 | 0.00 | 0.00 | 41 | 1008.9 |
| 20260505210006 | 51 | 289 | 3.5 | 7.8 | 0.00 | 0.00 | 0.00 | 42 | 1008.9 |
| 20260505205506 | 51 | 299 | 1.7 | 7.8 | 0.00 | 0.00 | 0.00 | 42 | 1009.0 |
| 20260505205006 | 51 | 290 | 2.6 | 7.0 | 0.00 | 0.00 | 0.00 | 45 | 1009.1 |
| 20260505204505 | 51 | 321 | 1.7 | 4.3 | 0.00 | 0.00 | 0.00 | 42 | 1009.1 |
| 20260505204007 | 51 | 288 | 2.6 | 8.7 | 0.00 | 0.00 | 0.00 | 43 | 1009.0 |
| 20260505203506 | 51 | 290 | 3.5 | 10.4 | 0.00 | 0.00 | 0.00 | 41 | 1009.1 |
| 20260505203006 | 52 | 184 | 2.6 | 6.1 | 0.00 | 0.00 | 0.00 | 41 | 1009.1 |
| 20260505202506 | 51 | 273 | 1.7 | 5.2 | 0.00 | 0.00 | 0.00 | 42 | 1009.2 |
| 20260505201006 | 51 | 238 | 1.7 | 7.8 | 0.00 | 0.00 | 0.00 | 43 | 1009.3 |
| 20260505200506 | 51 | 272 | 1.7 | 7.8 | 0.00 | 0.00 | 0.00 | 42 | 1009.2 |
| 20260505200005 | 51 | 307 | 1.7 | 7.0 | 0.00 | 0.00 | 0.00 | 43 | 1009.3 |
| 20260505195505 | 51 | 280 | 2.6 | 7.8 | 0.00 | 0.00 | 0.00 | 43 | 1009.2 |
| 20260505195006 | 50 | 291 | 2.6 | 7.0 | 0.00 | 0.00 | 0.00 | 42 | 1009.3 |
| 20260505194506 | 50 | 302 | 2.6 | 11.3 | 0.00 | 0.00 | 0.00 | 40 | 1009.3 |
| 20260505194006 | 50 | 239 | 3.5 | 11.3 | 0.00 | 0.00 | 0.00 | 40 | 1009.3 |
| 20260505193007 | 50 | 212 | 1.7 | 6.1 | 0.00 | 0.00 | 0.00 | 38 | 1009.3 |
| 20260505192506 | 51 | 243 | 2.6 | 8.7 | 0.00 | 0.00 | 0.00 | 38 | 1009.5 |
| 20260505192006 | 51 | 250 | 1.7 | 7.0 | 0.00 | 0.00 | 0.00 | 41 | 1009.5 |
| 20260505191505 | 51 | 245 | 2.6 | 7.0 | 0.00 | 0.00 | 0.00 | 39 | 1009.4 |
| 20260505191006 | 50 | 318 | 1.7 | 6.1 | 0.00 | 0.00 | 0.00 | 43 | 1009.4 |
| 20260505190006 | 50 | 230 | 1.7 | 8.7 | 0.00 | 0.00 | 0.00 | 41 | 1009.5 |
| 20260505185506 | 50 | 291 | 2.6 | 7.0 | 0.00 | 0.00 | 0.00 | 40 | 1009.5 |
| 20260505185006 | 50 | 221 | 2.6 | 4.3 | 0.00 | 0.00 | 0.00 | 41 | 1009.5 |
| 20260505184506 | 50 | 237 | 1.7 | 7.0 | 0.00 | 0.00 | 0.00 | 43 | 1009.4 |
| 20260505184006 | 49 | 302 | 4.3 | 8.7 | 0.00 | 0.00 | 0.00 | 43 | 1009.5 |
| 20260505183506 | 49 | 226 | 3.5 | 11.3 | 0.00 | 0.00 | 0.00 | 41 | 1009.5 |
| 20260505183007 | 49 | 270 | 2.6 | 7.8 | 0.00 | 0.00 | 0.00 | 43 | 1009.3 |
| 20260505182506 | 49 | 262 | 1.7 | 7.0 | 0.00 | 0.00 | 0.00 | 43 | 1009.4 |
| 20260505182006 | 49 | 305 | 3.5 | 7.0 | 0.00 | 0.00 | 0.00 | 43 | 1009.3 |
| 20260505181006 | 49 | 285 | 2.6 | 7.8 | 0.00 | 0.00 | 0.00 | 41 | 1009.2 |
| 20260505180506 | 50 | 299 | 3.5 | 10.4 | 0.00 | 0.00 | 0.00 | 41 | 1009.2 |
| 20260505180006 | 50 | 253 | 1.7 | 5.2 | 0.00 | 0.00 | 0.00 | 40 | 1009.2 |
| 20260505175506 | 50 | 291 | 1.7 | 5.2 | 0.00 | 0.00 | 0.00 | 40 | 1009.1 |
| 20260505174506 | 49 | 241 | 2.6 | 7.8 | 0.00 | 0.00 | 0.00 | 40 | 1009.1 |
| 20260505174006 | 50 | 299 | 2.6 | 10.4 | 0.00 | 0.00 | 0.00 | 40 | 1009.0 |
| 20260505173506 | 50 | 233 | 2.6 | 7.8 | 0.00 | 0.00 | 0.00 | 41 | 1009.1 |
| 20260505173006 | 49 | 229 | 2.6 | 10.4 | 0.00 | 0.00 | 0.00 | 39 | 1009.0 |
| 20260505172506 | 49 | 260 | 1.7 | 7.0 | 0.00 | 0.00 | 0.00 | 39 | 1009.1 |
| 20260505171506 | 49 | 254 | 1.7 | 6.1 | 0.00 | 0.00 | 0.00 | 40 | 1009.1 |
| 20260505170506 | 50 | 264 | 0.9 | 7.0 | 0.00 | 0.00 | 0.00 | 40 | 1009.1 |
| 20260505170006 | 50 | 258 | 2.6 | 7.0 | 0.00 | 0.00 | 0.00 | 42 | 1009.1 |
| 20260505165506 | 49 | 290 | 2.6 | 7.0 | 0.00 | 0.00 | 0.00 | 45 | 1009.1 |
| 20260505165006 | 48 | 263 | 1.7 | 8.7 | 0.00 | 0.00 | 0.00 | 41 | 1009.2 |
| 20260505164506 | 48 | 257 | 1.7 | 7.8 | 0.00 | 0.00 | 0.00 | 41 | 1009.1 |
| 20260505164006 | 49 | 288 | 2.6 | 8.7 | 0.00 | 0.00 | 0.00 | 42 | 1009.2 |
| 20260505163506 | 49 | 305 | 4.3 | 10.4 | 0.00 | 0.00 | 0.00 | 42 | 1009.1 |
| 20260505163008 | 49 | 276 | 1.7 | 7.0 | 0.00 | 0.00 | 0.00 | 45 | 1009.2 |
| 20260505161506 | 49 | 250 | 1.7 | 5.2 | 0.00 | 0.00 | 0.00 | 41 | 1009.4 |
| 20260505161006 | 49 | 275 | 2.6 | 10.4 | 0.00 | 0.00 | 0.00 | 42 | 1009.4 |
| 20260505160506 | 49 | 305 | 4.3 | 7.8 | 0.00 | 0.00 | 0.00 | 44 | 1009.4 |
| 20260505152006 | 47 | 257 | 1.7 | 2.6 | 0.00 | 0.00 | 0.00 | 47 | 1009.0 |
| 20260505151506 | 47 | 306 | 0.9 | 6.1 | 0.00 | 0.00 | 0.00 | 47 | 1009.0 |
| 20260505151006 | 48 | 302 | 1.7 | 4.3 | 0.00 | 0.00 | 0.00 | 46 | 1009.0 |
| 20260505150506 | 47 | 288 | 0.9 | 6.1 | 0.00 | 0.00 | 0.00 | 51 | 1008.9 |
| 20260505140505 | 45 | 303 | 1.7 | 4.3 | 0.00 | 0.00 | 0.00 | 55 | 1008.8 |
| 20260505125006 | 41 | 304 | 0.9 | 4.3 | 0.00 | 0.00 | 0.00 | 67 | 1008.2 |
| 20260505124506 | 40 | 304 | 0.9 | 4.3 | 0.00 | 0.00 | 0.00 | 68 | 1008.1 |
| 20260505124006 | 40 | 293 | 0.9 | 2.6 | 0.00 | 0.00 | 0.00 | 68 | 1008.1 |
| 20260505123505 | 40 | 274 | 0.0 | 2.6 | 0.00 | 0.00 | 0.00 | 70 | 1008.0 |
| 20260505123006 | 39 | 311 | 0.9 | 2.6 | 0.00 | 0.00 | 0.00 | 70 | 1008.0 |
| 20260505122505 | 39 | 307 | 1.7 | 2.6 | 0.00 | 0.00 | 0.00 | 70 | 1007.9 |
| 20260505122006 | 38 | 307 | 1.7 | 2.6 | 0.00 | 0.00 | 0.00 | 70 | 1007.8 |
| 20260505121506 | 38 | 307 | 0.9 | 2.6 | 0.00 | 0.00 | 0.00 | 71 | 1007.7 |
| 20260505121006 | 38 | 272 | 0.9 | 2.6 | 0.00 | 0.00 | 0.00 | 72 | 1007.7 |
| 20260505120506 | 37 | 272 | 0.9 | 2.6 | 0.00 | 0.00 | 0.00 | 73 | 1007.6 |
| 20260505120006 | 37 | 272 | 0.0 | 2.6 | 0.00 | 0.00 | 0.00 | 74 | 1007.5 |
| 20260505115506 | 37 | 272 | 0.0 | 2.6 | 0.00 | 0.00 | 0.00 | 73 | 1007.4 |
| 20260505114006 | 37 | 272 | 0.0 | 1.7 | 0.00 | 0.00 | 0.00 | 73 | 1007.1 |
| 20260505113506 | 37 | 272 | 0.0 | 1.7 | 0.00 | 0.00 | 0.00 | 73 | 1007.0 |
| 20260505113006 | 37 | 272 | 0.9 | 1.7 | 0.00 | 0.00 | 0.00 | 72 | 1006.8 |
| 20260505112506 | 36 | 272 | 0.0 | 0.0 | 0.00 | 0.00 | 0.00 | 72 | 1006.7 |
| 20260505112006 | 37 | 272 | 0.0 | 0.9 | 0.00 | 0.00 | 0.00 | 72 | 1006.6 |
| 20260505111505 | 37 | 272 | 0.0 | 0.0 | 0.00 | 0.00 | 0.00 | 72 | 1006.5 |
| 20260505111006 | 37 | 272 | 0.0 | 0.0 | 0.00 | 0.00 | 0.00 | 71 | 1006.3 |
| 20260505110506 | 37 | 272 | 0.0 | 0.0 | 0.00 | 0.00 | 0.00 | 71 | 1006.3 |
| 20260505102006 | 37 | 272 | 0.0 | 1.7 | 0.00 | 0.00 | 0.00 | 70 | 1005.8 |
| 20260505101506 | 37 | 272 | 0.0 | 0.0 | 0.00 | 0.00 | 0.00 | 70 | 1005.8 |
| 20260505101006 | 38 | 272 | 0.0 | 0.0 | 0.00 | 0.00 | 0.00 | 70 | 1005.8 |
| 20260505095505 | 38 | 272 | 0.0 | 0.0 | 0.00 | 0.00 | 0.00 | 69 | 1005.8 |
| 20260505095006 | 38 | 272 | 0.0 | 0.9 | 0.00 | 0.00 | 0.00 | 68 | 1005.8 |
| 20260505094005 | 38 | 272 | 0.0 | 0.0 | 0.00 | 0.00 | 0.00 | 68 | 1005.8 |
| 20260505093506 | 38 | 272 | 0.0 | 0.9 | 0.00 | 0.00 | 0.00 | 68 | 1005.7 |
| 20260505092506 | 38 | 272 | 0.0 | 0.9 | 0.00 | 0.00 | 0.00 | 69 | 1005.7 |
| 20260505092006 | 38 | 272 | 0.0 | 0.0 | 0.00 | 0.00 | 0.00 | 69 | 1005.7 |
| 20260505091006 | 38 | 272 | 0.0 | 0.0 | 0.00 | 0.00 | 0.00 | 70 | 1005.6 |
| 20260505084006 | 39 | 272 | 0.0 | 0.0 | 0.00 | 0.00 | 0.00 | 64 | 1005.3 |
| 20260505083006 | 40 | 272 | 0.0 | 0.0 | 0.00 | 0.00 | 0.00 | 64 | 1005.1 |
| 20260505082505 | 40 | 272 | 0.0 | 2.6 | 0.00 | 0.00 | 0.00 | 64 | 1005.0 |
| 20260505082006 | 40 | 272 | 0.0 | 1.7 | 0.00 | 0.00 | 0.00 | 64 | 1004.8 |
| 20260505081506 | 40 | 272 | 0.0 | 1.7 | 0.00 | 0.00 | 0.00 | 63 | 1004.8 |
| 20260505081006 | 40 | 272 | 0.0 | 0.9 | 0.00 | 0.00 | 0.00 | 63 | 1004.8 |
| 20260505080506 | 40 | 272 | 0.0 | 0.9 | 0.00 | 0.00 | 0.00 | 63 | 1004.7 |
| 20260505080006 | 40 | 272 | 0.0 | 0.9 | 0.00 | 0.00 | 0.00 | 62 | 1004.7 |
| 20260505075506 | 40 | 272 | 0.0 | 0.9 | 0.00 | 0.00 | 0.00 | 62 | 1004.7 |
| 20260505075006 | 41 | 272 | 0.0 | 2.6 | 0.00 | 0.00 | 0.00 | 62 | 1004.7 |
| 20260505074505 | 41 | 272 | 0.0 | 0.9 | 0.00 | 0.00 | 0.00 | 62 | 1004.7 |
| 20260505074006 | 41 | 272 | 0.0 | 0.9 | 0.00 | 0.00 | 0.00 | 62 | 1004.6 |
| 20260505073506 | 41 | 272 | 0.0 | 0.9 | 0.00 | 0.00 | 0.00 | 63 | 1004.6 |
| 20260505073006 | 41 | 272 | 0.0 | 1.7 | 0.00 | 0.00 | 0.00 | 62 | 1004.7 |
| 20260505072506 | 42 | 272 | 0.0 | 1.7 | 0.00 | 0.00 | 0.00 | 60 | 1004.6 |
| 20260505072005 | 42 | 272 | 0.0 | 0.0 | 0.00 | 0.00 | 0.00 | 60 | 1004.6 |
| 20260505071506 | 42 | 272 | 0.0 | 1.7 | 0.00 | 0.00 | 0.00 | 60 | 1004.7 |
| 20260505071006 | 42 | 272 | 0.0 | 0.9 | 0.00 | 0.00 | 0.00 | 59 | 1004.6 |
| 20260505070506 | 42 | 272 | 0.0 | 0.9 | 0.00 | 0.00 | 0.00 | 59 | 1004.6 |
| 20260505065505 | 42 | 272 | 0.0 | 0.0 | 0.00 | 0.00 | 0.00 | 59 | 1004.5 |
| 20260505065005 | 42 | 272 | 0.0 | 1.7 | 0.00 | 0.00 | 0.00 | 59 | 1004.5 |
| 20260505064506 | 42 | 272 | 0.0 | 2.6 | 0.00 | 0.00 | 0.00 | 59 | 1004.6 |
| 20260505064006 | 42 | 284 | 0.0 | 1.7 | 0.00 | 0.00 | 0.00 | 59 | 1004.5 |
| 20260505063005 | 42 | 305 | 0.0 | 0.9 | 0.00 | 0.00 | 0.00 | 59 | 1004.5 |
| 20260505062505 | 42 | 305 | 0.0 | 0.9 | 0.00 | 0.00 | 0.00 | 58 | 1004.5 |
| 20260505062006 | 42 | 305 | 0.0 | 0.9 | 0.00 | 0.00 | 0.00 | 58 | 1004.5 |
| 20260505061005 | 43 | 305 | 0.0 | 0.0 | 0.00 | 0.00 | 0.00 | 57 | 1004.4 |
| 20260505060506 | 43 | 305 | 0.9 | 2.6 | 0.00 | 0.00 | 0.00 | 57 | 1004.4 |
| 20260505060006 | 43 | 305 | 0.9 | 2.6 | 0.00 | 0.00 | 0.00 | 56 | 1004.4 |
| 20260505055505 | 43 | 305 | 0.0 | 2.6 | 0.00 | 0.00 | 0.00 | 57 | 1004.4 |
| 20260505055005 | 43 | 305 | 0.0 | 2.6 | 0.00 | 0.00 | 0.00 | 56 | 1004.4 |
| 20260505054505 | 43 | 305 | 0.0 | 2.6 | 0.00 | 0.00 | 0.00 | 56 | 1004.4 |
| 20260505054005 | 43 | 305 | 0.9 | 2.6 | 0.00 | 0.00 | 0.00 | 56 | 1004.4 |
| 20260505053506 | 43 | 305 | 0.0 | 2.6 | 0.00 | 0.00 | 0.00 | 56 | 1004.3 |
| 20260505053006 | 43 | 256 | 0.0 | 0.9 | 0.00 | 0.00 | 0.00 | 55 | 1004.3 |
| 20260505052506 | 43 | 256 | 0.0 | 0.0 | 0.00 | 0.00 | 0.00 | 55 | 1004.3 |
| 20260505052006 | 43 | 256 | 0.0 | 1.7 | 0.00 | 0.00 | 0.00 | 54 | 1004.3 |
| 20260505051506 | 44 | 232 | 0.0 | 1.7 | 0.00 | 0.00 | 0.00 | 55 | 1004.3 |
| 20260505050506 | 44 | 306 | 0.0 | 0.9 | 0.00 | 0.00 | 0.00 | 54 | 1004.2 |
| 20260505041506 | 45 | 289 | 0.0 | 1.7 | 0.00 | 0.00 | 0.00 | 50 | 1004.3 |
| 20260505041006 | 45 | 289 | 0.0 | 1.7 | 0.00 | 0.00 | 0.00 | 51 | 1004.3 |
| 20260505040506 | 45 | 289 | 0.0 | 1.7 | 0.00 | 0.00 | 0.00 | 50 | 1004.3 |
| 20260505040005 | 46 | 268 | 0.9 | 1.7 | 0.00 | 0.00 | 0.00 | 49 | 1004.2 |
| 20260505035505 | 46 | 265 | 1.7 | 4.3 | 0.00 | 0.00 | 0.00 | 49 | 1004.2 |
| 20260505035006 | 46 | 290 | 0.9 | 4.3 | 0.00 | 0.00 | 0.00 | 49 | 1004.3 |
| 20260505034506 | 46 | 298 | 0.9 | 2.6 | 0.00 | 0.00 | 0.00 | 49 | 1004.3 |
| 20260505034006 | 46 | 288 | 0.9 | 6.1 | 0.00 | 0.00 | 0.00 | 50 | 1004.2 |
| 20260505033505 | 46 | 304 | 1.7 | 4.3 | 0.00 | 0.00 | 0.00 | 50 | 1004.2 |
| 20260505033006 | 47 | 302 | 3.5 | 7.0 | 0.00 | 0.00 | 0.00 | 50 | 1004.2 |
| 20260505032505 | 47 | 295 | 1.7 | 6.1 | 0.00 | 0.00 | 0.00 | 50 | 1004.2 |
| 20260505032005 | 47 | 288 | 1.7 | 7.0 | 0.00 | 0.00 | 0.00 | 50 | 1004.1 |
| 20260505030506 | 48 | 296 | 1.7 | 7.8 | 0.00 | 0.00 | 0.00 | 49 | 1004.1 |
| 20260505030006 | 48 | 276 | 2.6 | 6.1 | 0.00 | 0.00 | 0.00 | 49 | 1003.9 |
| 20260505025505 | 49 | 276 | 2.6 | 8.7 | 0.00 | 0.00 | 0.00 | 49 | 1003.7 |
| 20260505025006 | 49 | 295 | 2.6 | 7.0 | 0.00 | 0.00 | 0.00 | 48 | 1003.7 |
| 20260505024505 | 49 | 299 | 2.6 | 8.7 | 0.00 | 0.00 | 0.00 | 48 | 1003.5 |
| 20260505024006 | 49 | 287 | 2.6 | 7.8 | 0.00 | 0.00 | 0.00 | 48 | 1003.4 |
| 20260505023505 | 49 | 312 | 1.7 | 7.0 | 0.00 | 0.00 | 0.00 | 48 | 1003.2 |
| 20260505023006 | 49 | 300 | 2.6 | 7.0 | 0.00 | 0.00 | 0.00 | 48 | 1003.1 |
| 20260505022506 | 49 | 303 | 1.7 | 6.1 | 0.00 | 0.00 | 0.00 | 48 | 1003.0 |
| 20260505022006 | 49 | 302 | 1.7 | 6.1 | 0.00 | 0.00 | 0.00 | 48 | 1002.9 |
| 20260505021505 | 50 | 298 | 2.6 | 4.3 | 0.00 | 0.00 | 0.00 | 47 | 1002.7 |
| 20260505020006 | 50 | 297 | 2.6 | 7.0 | 0.00 | 0.00 | 0.00 | 47 | 1002.4 |
| 20260505015505 | 50 | 305 | 2.6 | 7.0 | 0.00 | 0.00 | 0.00 | 47 | 1002.3 |
| 20260505015006 | 50 | 304 | 2.6 | 7.8 | 0.00 | 0.00 | 0.00 | 47 | 1002.2 |
| 20260505014506 | 51 | 301 | 2.6 | 7.0 | 0.00 | 0.00 | 0.00 | 47 | 1002.1 |
| 20260505014006 | 51 | 304 | 2.6 | 7.0 | 0.00 | 0.00 | 0.00 | 46 | 1002.1 |
| 20260505013505 | 51 | 277 | 3.5 | 10.4 | 0.00 | 0.00 | 0.00 | 47 | 1001.9 |
| 20260505013005 | 51 | 304 | 1.7 | 6.1 | 0.00 | 0.00 | 0.00 | 46 | 1001.8 |
| 20260505012506 | 51 | 290 | 3.5 | 7.8 | 0.00 | 0.00 | 0.00 | 46 | 1001.7 |
| 20260505012005 | 52 | 320 | 2.6 | 7.0 | 0.00 | 0.00 | 0.00 | 45 | 1001.6 |
| 20260505011506 | 52 | 294 | 2.6 | 7.8 | 0.00 | 0.00 | 0.00 | 46 | 1001.5 |
| 20260505011005 | 52 | 293 | 3.5 | 8.7 | 0.00 | 0.00 | 0.00 | 45 | 1001.4 |
| 20260505010506 | 52 | 306 | 2.6 | 7.8 | 0.00 | 0.00 | 0.00 | 45 | 1001.2 |
| 20260505010005 | 53 | 292 | 3.5 | 10.4 | 0.00 | 0.00 | 0.00 | 45 | 1001.1 |
| 20260505005505 | 53 | 294 | 4.3 | 11.3 | 0.00 | 0.00 | 0.00 | 45 | 1001.1 |
| 20260505005006 | 53 | 259 | 2.6 | 7.8 | 0.00 | 0.00 | 0.00 | 45 | 1000.9 |
| 20260505003505 | 54 | 270 | 2.6 | 10.4 | 0.00 | 0.00 | 0.00 | 44 | 1000.7 |
| 20260505003006 | 54 | 300 | 2.6 | 8.7 | 0.00 | 0.00 | 0.00 | 45 | 1000.5 |
| 20260505002506 | 54 | 268 | 2.6 | 7.0 | 0.00 | 0.00 | 0.00 | 44 | 1000.5 |
| 20260505001506 | 55 | 313 | 0.9 | 4.3 | 0.00 | 0.00 | 0.00 | 46 | 1000.4 |
| 20260505001005 | 55 | 299 | 2.6 | 8.7 | 0.00 | 0.00 | 0.00 | 44 | 1000.4 |
| 20260505000505 | 55 | 302 | 5.2 | 10.4 | 0.00 | 0.00 | 0.00 | 43 | 1000.4 |
| 20260505000005 | 56 | 250 | 2.6 | 10.4 | 0.00 | 0.00 | 0.00 | 43 | 1000.3 |
| 20260504235505 | 56 | 296 | 4.3 | 11.3 | 0.00 | 0.00 | 0.00 | 42 | 1000.3 |
| 20260504235006 | 56 | 264 | 3.5 | 10.4 | 0.00 | 0.00 | 0.00 | 42 | 1000.2 |
| 20260504234506 | 56 | 305 | 1.7 | 8.7 | 0.00 | 0.00 | 0.00 | 43 | 1000.1 |
| 20260504234006 | 57 | 298 | 2.6 | 13.0 | 0.00 | 0.00 | 0.00 | 42 | 1000.0 |
| 20260504233505 | 57 | 272 | 4.3 | 7.8 | 0.00 | 0.00 | 0.00 | 41 | 1000.1 |
| 20260504233006 | 57 | 275 | 4.3 | 14.8 | 0.00 | 0.00 | 0.00 | 42 | 1000.0 |
| 20260504232506 | 58 | 304 | 1.7 | 10.4 | 0.00 | 0.00 | 0.00 | 41 | 999.9 |
| 20260504232006 | 58 | 285 | 5.2 | 10.4 | 0.00 | 0.00 | 0.00 | 40 | 999.8 |
| 20260504231505 | 59 | 293 | 6.1 | 13.9 | 0.00 | 0.00 | 0.00 | 40 | 999.6 |
| 20260504231006 | 59 | 283 | 2.6 | 7.8 | 0.00 | 0.00 | 0.00 | 39 | 999.6 |
| 20260504230505 | 59 | 283 | 4.3 | 8.7 | 0.00 | 0.00 | 0.00 | 40 | 999.5 |
| 20260504230006 | 59 | 263 | 3.5 | 7.0 | 0.00 | 0.00 | 0.00 | 39 | 999.5 |
| 20260504225506 | 59 | 259 | 1.7 | 7.0 | 0.00 | 0.00 | 0.00 | 41 | 999.3 |